Date String (YYYY-MM-DD hh:mm:ss) UTC,Instrument flags,absolute air pressure of the measurement (hPa),sample flow rate (lpm),inlet stack bypass flow (lpm),air temperature of the measurement (°C),ambient temperature measured by the external sensor (°C),aerosol sample conditioner tube jacket temperature (°C),OPC LED temperature (°C),internal box temperature (°C),relative humidity of the measurement (%),span deviation,mass concentration of particles derived from Lorenz-Mie calculation of OPC scattering (μg/m³),mass concentration of particles derived from Lorenz-Mie calculation of OPC scattering (μg/m³),mass concentration of particles derived from Lorenz-Mie calculation of OPC scattering (μg/m³)
DateTimeUTC,F1_M11,P_M11,Q1_M11,Q2_M11,T1_M11,T2_M11,T3_M11,T4_M11,T5_M11,U1_M11,ZSPAN_M11,X2_M11,X0_M11,X1_M11
2024-02-01 04:00:00,SystemResetWarning,0826.9,4.98,000.00,025.9,025.2,000.0,034.4,027.7,08.8,0000.0,0001.75,0006.87,0001.30
2024-02-01 04:01:00,SystemResetWarning,0826.9,5.01,000.00,025.9,025.1,000.0,034.4,027.7,08.8,0000.0,0001.60,0006.41,0001.22
2024-02-01 04:02:00,SystemResetWarning,0827.0,5.01,000.00,025.9,025.1,000.0,034.4,027.7,09.0,0000.0,0001.45,0005.48,0001.15
2024-02-01 04:03:00,SystemResetWarning,0826.9,4.99,000.00,025.9,025.1,000.0,034.4,027.7,09.0,0000.0,0001.35,0002.88,0001.08
2024-02-01 04:04:00,SystemResetWarning,0827.0,5.00,000.00,025.9,025.1,000.0,034.3,027.6,09.0,0000.0,0001.24,0002.50,0001.01
2024-02-01 04:05:00,SystemResetWarning,0826.9,4.99,000.00,025.9,025.1,000.0,034.3,027.6,09.0,0000.0,0001.14,0002.00,0000.95
2024-02-01 04:06:00,SystemResetWarning,0826.9,5.00,000.00,025.9,025.1,000.0,034.3,027.6,09.0,0000.0,0001.09,0001.49,0000.90
2024-02-01 04:07:00,SystemResetWarning,0827.0,5.00,000.00,025.9,025.1,000.0,034.3,027.6,08.9,0000.0,0001.07,0001.47,0000.89
2024-02-01 04:08:00,SystemResetWarning,0826.9,4.99,000.00,025.9,025.1,000.0,034.3,027.6,08.9,0000.0,0001.03,0001.39,0000.87
2024-02-01 04:09:00,SystemResetWarning,0826.9,5.00,000.00,025.9,025.1,000.0,034.3,027.6,08.9,0000.0,0001.00,0001.33,0000.86
2024-02-01 04:10:00,SystemResetWarning,0827.0,5.01,000.00,025.9,025.1,000.0,034.3,027.6,08.9,0000.0,0001.08,0001.85,0000.92
2024-02-01 04:11:00,SystemResetWarning,0827.0,5.00,000.00,025.9,025.1,000.0,034.3,027.6,08.9,0000.0,0001.22,0002.98,0000.99
2024-02-01 04:12:00,SystemResetWarning,0826.9,5.01,000.00,025.9,025.1,000.0,034.3,027.6,09.0,0000.0,0001.27,0003.18,0001.02
2024-02-01 04:13:00,SystemResetWarning,0826.9,5.00,000.00,025.9,025.1,000.0,034.3,027.6,09.0,0000.0,0001.32,0004.07,0001.06
2024-02-01 04:14:00,SystemResetWarning,0826.9,5.00,000.00,025.8,025.0,000.0,034.3,027.6,09.0,0000.0,0001.37,0004.89,0001.10
2024-02-01 04:15:00,SystemResetWarning,0826.9,5.00,000.00,025.8,025.0,000.0,034.3,027.6,09.0,0000.0,0001.42,0005.24,0001.14
2024-02-01 04:16:00,SystemResetWarning,0826.9,5.00,000.00,025.8,025.0,000.0,034.3,027.6,08.8,0000.0,0001.50,0005.46,0001.20
2024-02-01 04:17:00,SystemResetWarning,0826.9,5.00,000.00,025.8,025.0,000.0,034.3,027.6,08.8,0000.0,0001.66,0005.78,0001.32
2024-02-01 04:18:00,SystemResetWarning,0826.9,5.00,000.00,025.8,025.1,000.0,034.3,027.6,08.8,0000.0,0001.91,0006.22,0001.46
2024-02-01 04:19:00,SystemResetWarning,0826.9,5.00,000.00,025.8,025.1,000.0,034.3,027.6,08.7,0000.0,0002.26,0006.95,0001.67
2024-02-01 04:20:00,SystemResetWarning,0826.9,5.00,000.00,025.8,025.1,000.0,034.2,027.6,08.7,0000.0,0002.66,0008.02,0001.99
2024-02-01 04:21:00,SystemResetWarning,0826.9,5.00,000.00,025.8,025.1,000.0,034.3,027.6,08.8,0000.0,0003.01,0008.77,0002.29
2024-02-01 04:22:00,SystemResetWarning,0826.9,5.00,000.00,025.8,025.1,000.0,034.2,027.6,08.8,0000.0,0003.33,0010.19,0002.72
2024-02-01 04:23:00,SystemResetWarning,0826.9,4.99,000.00,025.8,025.1,000.0,034.2,027.6,08.8,0000.0,0003.66,0012.08,0003.16
2024-02-01 04:24:00,SystemResetWarning,0826.9,5.00,000.00,025.8,025.1,000.0,034.2,027.6,08.8,0000.0,0003.98,0012.78,0003.42
2024-02-01 04:25:00,SystemResetWarning,0826.9,5.00,000.00,025.8,025.1,000.0,034.2,027.6,08.8,0000.0,0004.30,0013.15,0003.68
2024-02-01 04:26:00,SystemResetWarning,0826.9,5.00,000.00,025.8,025.1,000.0,034.2,027.6,08.8,0000.0,0004.61,0013.80,0003.93
2024-02-01 04:27:00,SystemResetWarning,0826.9,5.00,000.00,025.9,025.1,000.0,034.2,027.6,08.8,0000.0,0004.96,0015.84,0004.20
2024-02-01 04:28:00,SystemResetWarning,0826.9,5.00,000.00,025.9,025.1,000.0,034.2,027.6,08.6,0000.0,0005.19,0017.14,0004.40
2024-02-01 04:29:00,SystemResetWarning,0826.9,5.00,000.00,025.9,025.1,000.0,034.2,027.6,08.6,0000.0,0005.26,0017.30,0004.49
2024-02-01 04:30:00,SystemResetWarning,0826.9,4.99,000.00,025.9,025.1,000.0,034.2,027.6,08.7,0000.0,0005.27,0018.05,0004.53
2024-02-01 04:31:00,SystemResetWarning,0827.0,5.01,000.00,025.8,025.1,000.0,034.2,027.6,08.7,0000.0,0005.25,0017.61,0004.49
2024-02-01 04:32:00,SystemResetWarning,0826.9,5.01,000.00,025.8,025.1,000.0,034.2,027.6,08.9,0000.0,0005.17,0017.51,0004.40
2024-02-01 04:33:00,SystemResetWarning,0826.9,5.00,000.00,025.8,025.1,000.0,034.2,027.6,09.1,0000.0,0004.97,0016.74,0004.22
2024-02-01 04:34:00,SystemResetWarning,0826.9,4.99,000.00,025.8,025.1,000.0,034.2,027.6,09.0,0000.0,0004.70,0014.91,0003.98
2024-02-01 04:35:00,SystemResetWarning,0826.9,4.99,000.00,025.8,025.1,000.0,034.2,027.6,08.9,0000.0,0004.48,0014.06,0003.79
2024-02-01 04:36:00,SystemResetWarning,0826.9,5.01,000.00,025.8,025.1,000.0,034.2,027.6,08.9,0000.0,0004.26,0013.54,0003.60
2024-02-01 04:37:00,SystemResetWarning,0826.9,5.00,000.00,025.9,025.1,000.0,034.2,027.6,08.8,0000.0,0004.04,0012.87,0003.41
2024-02-01 04:38:00,SystemResetWarning,0826.9,5.00,000.00,025.9,025.1,000.0,034.2,027.7,08.8,0000.0,0003.79,0011.37,0003.21
2024-02-01 04:39:00,SystemResetWarning,0826.9,4.99,000.00,025.9,025.1,000.0,034.2,027.6,08.8,0000.0,0003.59,0010.98,0002.96
2024-02-01 04:40:00,SystemResetWarning,0826.9,4.99,000.00,025.9,025.1,000.0,034.2,027.6,08.8,0000.0,0003.45,0010.63,0002.78
2024-02-01 04:41:00,SystemResetWarning,0826.9,4.99,000.00,025.9,025.1,000.0,034.3,027.7,08.8,0000.0,0003.35,0010.07,0002.65
2024-02-01 04:42:00,SystemResetWarning,0826.9,4.99,000.00,025.9,025.1,000.0,034.3,027.7,08.8,0000.0,0003.29,0010.03,0002.59
2024-02-01 04:43:00,SystemResetWarning,0826.8,5.00,000.00,025.9,025.1,000.0,034.2,027.6,08.8,0000.0,0003.25,0009.80,0002.58
2024-02-01 04:44:00,SystemResetWarning,0826.8,5.00,000.00,025.9,025.1,000.0,034.2,027.6,08.8,0000.0,0003.27,0009.78,0002.60
2024-02-01 04:45:00,SystemResetWarning,0826.8,5.00,000.00,025.9,025.1,000.0,034.2,027.6,08.8,0000.0,0003.30,0011.21,0002.67
2024-02-01 04:46:00,SystemResetWarning,0826.8,5.00,000.00,025.9,025.1,000.0,034.2,027.6,08.8,0000.0,0003.33,0011.58,0002.71
2024-02-01 04:47:00,SystemResetWarning,0826.8,5.01,000.00,025.9,025.1,000.0,034.2,027.6,08.8,0000.0,0003.35,0012.05,0002.74
2024-02-01 04:48:00,SystemResetWarning,0826.9,5.00,000.00,025.9,025.1,000.0,034.2,027.6,08.8,0000.0,0003.44,0012.70,0002.83
2024-02-01 04:49:00,SystemResetWarning,0826.9,5.00,000.00,025.9,025.1,000.0,034.2,027.6,08.9,0000.0,0003.56,0012.93,0002.93
2024-02-01 04:50:00,SystemResetWarning,0826.9,5.00,000.00,025.9,025.1,000.0,034.3,027.6,08.9,0000.0,0003.66,0012.11,0003.09
2024-02-01 04:51:00,SystemResetWarning,0826.9,5.00,000.00,025.9,025.1,000.0,034.3,027.6,08.9,0000.0,0003.78,0012.44,0003.16
2024-02-01 04:52:00,SystemResetWarning,0826.9,5.01,000.00,025.9,025.1,000.0,034.3,027.6,08.9,0000.0,0003.88,0012.95,0003.21
2024-02-01 04:53:00,SystemResetWarning,0826.9,5.00,000.00,025.9,025.1,000.0,034.2,027.6,08.9,0000.0,0003.91,0013.11,0003.24
2024-02-01 04:54:00,SystemResetWarning,0826.9,5.00,000.00,025.9,025.1,000.0,034.2,027.6,08.9,0000.0,0003.99,0013.98,0003.28
2024-02-01 04:55:00,SystemResetWarning,0826.9,5.00,000.00,025.8,025.1,000.0,034.2,027.6,08.9,0000.0,0004.05,0013.72,0003.31
2024-02-01 04:56:00,SystemResetWarning,0826.9,5.00,000.00,025.8,025.1,000.0,034.2,027.6,08.9,0000.0,0004.13,0013.49,0003.34
2024-02-01 04:57:00,SystemResetWarning,0826.9,5.00,000.00,025.8,025.1,000.0,034.2,027.6,09.0,0000.0,0004.14,0014.19,0003.36
2024-02-01 04:58:00,SystemResetWarning,0826.8,5.00,000.00,025.8,025.1,000.0,034.2,027.6,08.9,0000.0,0004.15,0014.47,0003.37
2024-02-01 04:59:00,SystemResetWarning,0826.7,5.00,000.00,025.8,025.1,000.0,034.2,027.6,08.9,0000.0,0004.12,0013.93,0003.37
